TimeCST,TemperatureF,Dew PointF,Humidity,Sea Level PressureIn,VisibilityMPH,Wind Direction,Wind SpeedMPH,Gust SpeedMPH,PrecipitationIn,Events,Conditions,WindDirDegrees,DateUTC
12:15 AM,37.4,28.4,70,30.10,10.0,WSW,11.5,-,N/A,,Clear,240,2013-03-03 06:15:00
12:35 AM,35.6,28.4,75,30.09,10.0,WSW,8.1,-,N/A,,Clear,240,2013-03-03 06:35:00
12:55 AM,35.6,28.4,75,30.08,10.0,WSW,6.9,-,N/A,,Clear,250,2013-03-03 06:55:00
1:15 AM,35.6,26.6,70,30.08,10.0,West,9.2,-,N/A,,Clear,260,2013-03-03 07:15:00
1:35 AM,35.6,28.4,75,30.07,10.0,West,9.2,-,N/A,,Clear,260,2013-03-03 07:35:00
1:55 AM,33.8,26.6,75,30.07,10.0,WSW,9.2,-,N/A,,Clear,250,2013-03-03 07:55:00
2:15 AM,33.8,26.6,75,30.06,10.0,West,10.4,-,N/A,,Clear,260,2013-03-03 08:15:00
2:35 AM,35.6,28.4,75,30.05,10.0,WSW,11.5,-,N/A,,Clear,250,2013-03-03 08:35:00
2:55 AM,37.4,28.4,70,30.04,10.0,WSW,11.5,-,N/A,,Clear,250,2013-03-03 08:55:00
3:15 AM,37.4,28.4,70,30.02,10.0,WSW,11.5,-,N/A,,Clear,250,2013-03-03 09:15:00
3:35 AM,37.4,28.4,70,30.01,10.0,West,11.5,-,N/A,,Clear,260,2013-03-03 09:35:00
3:55 AM,37.4,26.6,65,29.99,10.0,West,10.4,-,N/A,,Clear,260,2013-03-03 09:55:00
4:15 AM,35.6,26.6,70,29.98,10.0,WSW,10.4,-,N/A,,Clear,250,2013-03-03 10:15:00
4:35 AM,33.8,26.6,75,29.97,10.0,WSW,10.4,-,N/A,,Clear,240,2013-03-03 10:35:00
4:55 AM,35.6,26.6,70,29.96,10.0,WSW,11.5,-,N/A,,Clear,240,2013-03-03 10:55:00
5:15 AM,35.6,26.6,70,29.96,10.0,WSW,8.1,-,N/A,,Clear,240,2013-03-03 11:15:00
5:35 AM,37.4,26.6,65,29.95,10.0,SW,10.4,-,N/A,,Clear,230,2013-03-03 11:35:00
5:55 AM,37.4,26.6,65,29.95,10.0,WSW,12.7,-,N/A,,Clear,240,2013-03-03 11:55:00
6:15 AM,37.4,26.6,65,29.94,10.0,SW,10.4,-,N/A,,Clear,220,2013-03-03 12:15:00
6:35 AM,35.6,24.8,65,29.93,10.0,SSW,9.2,-,N/A,,Clear,210,2013-03-03 12:35:00
6:55 AM,35.6,26.6,70,29.93,10.0,SSW,9.2,-,N/A,,Clear,210,2013-03-03 12:55:00
7:15 AM,33.8,24.8,70,29.92,10.0,SW,8.1,-,N/A,,Clear,220,2013-03-03 13:15:00
7:35 AM,33.8,26.6,75,29.91,10.0,SSW,9.2,-,N/A,,Clear,210,2013-03-03 13:35:00
7:55 AM,35.6,26.6,70,29.91,10.0,SW,8.1,-,N/A,,Clear,220,2013-03-03 13:55:00
8:15 AM,39.2,30.2,70,29.90,10.0,SSW,11.5,-,N/A,,Clear,210,2013-03-03 14:15:00
8:35 AM,39.2,28.4,65,29.90,10.0,SSW,15.0,-,N/A,,Clear,210,2013-03-03 14:35:00
8:55 AM,41.0,30.2,65,29.89,10.0,SSW,12.7,-,N/A,,Clear,210,2013-03-03 14:55:00
9:15 AM,42.8,32.0,66,29.87,10.0,SSW,12.7,-,N/A,,Clear,210,2013-03-03 15:15:00
9:35 AM,42.8,32.0,66,29.87,10.0,SSW,13.8,-,N/A,,Clear,210,2013-03-03 15:35:00
9:55 AM,44.6,32.0,61,29.85,10.0,SSW,11.5,-,N/A,,Clear,210,2013-03-03 15:55:00
10:15 AM,46.4,33.8,62,29.85,10.0,SW,11.5,-,N/A,,Clear,230,2013-03-03 16:15:00
10:35 AM,46.4,33.8,62,29.83,10.0,SW,10.4,-,N/A,,Clear,220,2013-03-03 16:35:00
10:55 AM,50.0,35.6,58,29.82,10.0,SW,10.4,-,N/A,,Clear,220,2013-03-03 16:55:00
11:15 AM,51.8,35.6,54,29.80,10.0,WSW,4.6,-,N/A,,Clear,240,2013-03-03 17:15:00
11:35 AM,55.4,35.6,47,29.79,10.0,SSW,5.8,-,N/A,,Clear,210,2013-03-03 17:35:00
11:55 AM,57.2,37.4,48,29.78,10.0,South,6.9,-,N/A,,Clear,190,2013-03-03 17:55:00
12:15 PM,59.0,37.4,45,29.76,10.0,South,9.2,-,N/A,,Clear,190,2013-03-03 18:15:00
12:35 PM,60.8,37.4,42,29.76,10.0,SW,5.8,-,N/A,,Clear,220,2013-03-03 18:35:00
12:55 PM,60.8,35.6,39,29.76,10.0,Calm,Calm,-,N/A,,Clear,0,2013-03-03 18:55:00
1:15 PM,62.6,37.4,39,29.73,10.0,SSW,4.6,-,N/A,,Clear,210,2013-03-03 19:15:00
1:35 PM,62.6,37.4,39,29.72,10.0,South,6.9,-,N/A,,Clear,170,2013-03-03 19:35:00
1:55 PM,64.4,37.4,37,29.71,10.0,South,6.9,-,N/A,,Clear,190,2013-03-03 19:55:00
2:15 PM,66.2,37.4,35,29.70,10.0,SE,5.8,-,N/A,,Clear,130,2013-03-03 20:15:00
2:35 PM,66.2,39.2,37,29.68,10.0,SSE,4.6,-,N/A,,Clear,160,2013-03-03 20:35:00
2:55 PM,66.2,39.2,37,29.67,10.0,SSE,4.6,-,N/A,,Clear,150,2013-03-03 20:55:00
3:15 PM,68.0,41.0,37,29.66,10.0,SE,6.9,-,N/A,,Clear,140,2013-03-03 21:15:00
3:35 PM,69.8,39.2,33,29.64,10.0,SSE,8.1,-,N/A,,Clear,150,2013-03-03 21:35:00
3:55 PM,69.8,39.2,33,29.65,10.0,SSE,6.9,-,N/A,,Clear,160,2013-03-03 21:55:00
4:15 PM,68.0,39.2,35,29.64,10.0,SSE,6.9,-,N/A,,Clear,150,2013-03-03 22:15:00
4:35 PM,66.2,39.2,37,29.64,10.0,East,6.9,-,N/A,,Clear,100,2013-03-03 22:35:00
4:55 PM,66.2,39.2,37,29.64,10.0,SE,6.9,-,N/A,,Clear,130,2013-03-03 22:55:00
5:15 PM,66.2,37.4,35,29.62,10.0,ESE,8.1,-,N/A,,Clear,120,2013-03-03 23:15:00
5:35 PM,64.4,37.4,37,29.62,10.0,ESE,6.9,-,N/A,,Clear,110,2013-03-03 23:35:00
5:55 PM,64.4,39.2,40,29.62,10.0,East,6.9,-,N/A,,Clear,100,2013-03-03 23:55:00
6:35 PM,59.0,37.4,45,29.61,10.0,East,8.1,-,N/A,,Clear,100,2013-03-04 00:35:00
6:55 PM,57.2,37.4,48,29.60,10.0,East,9.2,-,N/A,,Clear,90,2013-03-04 00:55:00
7:15 PM,55.4,37.4,51,29.61,10.0,East,5.8,-,N/A,,Clear,80,2013-03-04 01:15:00
7:35 PM,55.4,37.4,51,29.62,10.0,East,6.9,-,N/A,,Clear,100,2013-03-04 01:35:00
7:55 PM,53.6,37.4,54,29.62,10.0,East,8.1,-,N/A,,Clear,80,2013-03-04 01:55:00
8:15 PM,55.4,37.4,51,29.61,10.0,East,6.9,-,N/A,,Clear,80,2013-03-04 02:15:00
8:35 PM,53.6,37.4,54,29.60,10.0,ENE,9.2,-,N/A,,Clear,70,2013-03-04 02:35:00
8:55 PM,51.8,37.4,58,29.60,10.0,East,8.1,-,N/A,,Clear,90,2013-03-04 02:55:00
9:15 PM,50.0,37.4,62,29.58,10.0,East,6.9,-,N/A,,Clear,90,2013-03-04 03:15:00
9:35 PM,48.2,37.4,66,29.58,10.0,ENE,5.8,-,N/A,,Clear,60,2013-03-04 03:35:00
9:55 PM,48.2,35.6,62,29.58,10.0,ENE,4.6,-,N/A,,Clear,60,2013-03-04 03:55:00
10:15 PM,48.2,37.4,66,29.58,10.0,NE,4.6,-,N/A,,Clear,50,2013-03-04 04:15:00
10:35 PM,42.8,30.2,61,29.58,10.0,Calm,Calm,-,N/A,,Clear,0,2013-03-04 04:35:00
10:55 PM,39.2,30.2,70,29.58,10.0,Calm,Calm,-,N/A,,Clear,0,2013-03-04 04:55:00
11:15 PM,39.2,30.2,70,29.58,10.0,North,4.6,-,N/A,,Clear,360,2013-03-04 05:15:00
11:35 PM,39.2,30.2,70,29.59,10.0,North,8.1,-,N/A,,Clear,350,2013-03-04 05:35:00
11:55 PM,37.4,30.2,75,29.59,10.0,NNW,10.4,-,N/A,,Clear,340,2013-03-04 05:55:00